Regional Weather Roundup
Issued by NWS

Home | Current Version | Previous Version | Text Only | Print | Product List | Glossary On
Versions: 1 2 3 4 5 6 7 8 9 10 11 12 13 14 15 16 17 18 19 20 21 22 23 24 25 26 27 28 29 30 31 32 33 34 35 36 37 38 39 40 41 42 43 44 45 46 47 48 49 50
000
ASUS43 KMKX 120559
RWRWI

WISCONSIN REGIONAL WEATHER ROUNDUP
NATIONAL WEATHER SERVICE MILWAUKEE/SULLIVAN WI
1200 AM CST FRI FEB 12 2016

NOTE: "FAIR" INDICATES FEW OR NO CLOUDS BELOW 12,000 FEET WITH NO
SIGNIFICANT WEATHER AND/OR OBSTRUCTIONS TO VISIBILITY.

WIZ001-002-006>008-014>016-023>028-120700-
NORTHWEST WISCONSIN

CITY           SKY/WX    TMP DP  RH WIND       PRES   REMARKS
SUPERIOR ARPT  CLOUDY    13   0  56 NW13      30.17F WCI  -2
ASHLAND        CLOUDY    13   1  59 W8        30.12F WCI   2
6HR MIN TEMP:  12; 6HR MAX TEMP:  13;

HAYWARD        CLOUDY    12   1  61 W6        30.12F WCI   3
6HR MIN TEMP:  12; 6HR MAX TEMP:  13;

SIREN          CLOUDY    14   8  77 W7        30.18S WCI   3
CUMBERLAND     CLOUDY    12   5  73 W10       30.15F WCI  -1
RICE LAKE      CLOUDY    13   5  69 W7        30.18S WCI   3
CHETEK         CLOUDY    13   4  68 W3        30.17F
LADYSMITH      CLOUDY    13   3  65 W8        30.15F WCI   2
EAU CLAIRE     CLOUDY    14   4  64 W9        30.18F WCI   2
6HR MIN TEMP:  14; 6HR MAX TEMP:  15;

MENOMONIE      CLOUDY    15   5  64 W8        30.20S WCI   5
NEW RICHMOND   FLURRIES  14   8  79 W8        30.19F WCI   2
OSCEOLA        FLURRIES  15  10  83 W7        30.23F WCI   5
$$

WIZ003>005-009-010-017-018-120700-
NORTH CENTRAL WISCONSIN

CITY           SKY/WX    TMP DP  RH WIND       PRES   REMARKS
MANITOWISH WTR CLOUDY     8  -2  62 W9        30.04S WCI  -5
ARBOR VITAE    CLOUDY    11   0  59 W7        30.04F WCI   1
WOODRUFF       CLOUDY    11   0  59 W7        30.04F WCI   1
RHINELANDER    CLOUDY    10  -2  58 W12       30.04F WCI  -5
6HR MIN TEMP:  10; 6HR MAX TEMP:  13;

EAGLE RIVER    CLOUDY    10  -5  51 W12       30.02F WCI  -5
LAND O LAKES   CLOUDY    10  -2  59 W10       30.02F WCI  -4
PHILLIPS       CLOUDY    10  -1  61 W6        30.08F WCI   0
TOMAHAWK       CLOUDY    10  -1  59 W9        30.08F WCI  -3
MEDFORD        CLOUDY    11   1  62 W9        30.09F WCI  -2
MERRILL        CLOUDY    12  -1  56 W8        30.10F WCI   0
$$

WIZ029-030-035-036-043>047-120700-
CENTRAL WISCONSIN

CITY           SKY/WX    TMP DP  RH WIND       PRES   REMARKS
WAUSAU         CLOUDY    13   1  59 W15       30.09F WCI  -3
6HR MIN TEMP:  13; 6HR MAX TEMP:  14;

MOSINEE        CLOUDY    12   1  62 W9        30.12F WCI   0
MARSHFIELD     CLOUDY    13   0  56 W10       30.11F WCI   0
6HR MIN TEMP:  13; 6HR MAX TEMP:  15;

STEVENS POINT  CLOUDY    13  -1  54 W6        30.14F WCI   3
WAUPACA        CLOUDY    17   0  46 W10G17    30.16F WCI   5
WAUTOMA        NOT AVBL
WISC RAPIDS    CLOUDY    14  -1  51 W8        30.16F WCI   3
6HR MIN TEMP:  14; 6HR MAX TEMP:  16;

CAMP DOUGLAS   NOT AVBL
$$

WIZ011>013-019>022-031-037>040-048>050-120700-
NORTHEAST WISCONSIN

CITY           SKY/WX    TMP DP  RH WIND       PRES   REMARKS
ANTIGO         CLOUDY    10  -2  58 W12       30.06F WCI  -4
SHAWANO        CLOUDY    17  -1  45 W7        30.13F WCI   8
OCONTO         CLOUDY    15   0  51 W9        30.12F WCI   3
STURGEON BAY   CLOUDY    14   0  52 W14       30.12F WCI  -1
6HR MIN TEMP:  12; 6HR MAX TEMP:  14;

GREEN BAY      CLOUDY    15   1  53 W8        30.14F WCI   4
6HR MIN TEMP:  12; 6HR MAX TEMP:  15;

MANITOWOC      NOT AVBL
APPLETON       CLOUDY    16   0  48 SW10      30.12F WCI   3
CLINTONVILLE   CLOUDY    16   0  48 W9        30.14S WCI   4
OSHKOSH        CLOUDY    15   0  51 W9        30.15F WCI   3
6HR MIN TEMP:  10; 6HR MAX TEMP:  15;

$$

WIZ032>034-041-042-053>061-120700-
SOUTHWEST WISCONSIN

CITY           SKY/WX    TMP DP  RH WIND       PRES   REMARKS
LA CROSSE      CLOUDY    15   2  56 W6        30.22F WCI   6
6HR MIN TEMP:  15; 6HR MAX TEMP:  16;

SPARTA         CLOUDY    14   3  61 W5        30.21F WCI   6
VIROQUA        CLOUDY    12   4  70 W6        30.17F WCI   2
BOSCOBEL       CLOUDY    15   3  59 SW6       30.24F WCI   6
6HR MIN TEMP:  12; 6HR MAX TEMP:  16;

PRAIRIE DU CHI CLOUDY    14   4  63 CALM      30.25F
PLATTEVILLE    CLOUDY    14   6  69 W5        30.20F WCI   6
$$

WIZ056-057-062-063-064-067-068-120700-
SOUTH CENTRAL WISCONSIN

CITY           SKY/WX    TMP DP  RH WIND       PRES   REMARKS
REEDSBURG      CLOUDY    14   1  55 W7        30.20F WCI   4
BARABOO/DELLS  CLOUDY    14   1  56 W6        30.19F WCI   5
LONE ROCK      NOT AVBL
MINERAL POINT  CLOUDY    16   3  57 W6        30.18F WCI   7
MADISON        CLOUDY    16   1  51 W6        30.20S WCI   7
6HR MIN TEMP:  14; 6HR MAX TEMP:  16;

MIDDLETON      CLOUDY    17   4  55 W8        30.20S WCI   7
WATERTOWN      CLOUDY    16   4  59 W5        30.19F WCI   9
MONROE         CLOUDY    18   5  57 SW8       30.19F WCI   7
JANESVILLE     CLOUDY    19   5  53 CALM      30.21F
$$

WIZ051-052-058>065-066-070>072-120700-
SOUTHEAST WISCONSIN

CITY           SKY/WX    TMP DP  RH WIND       PRES   REMARKS
MILWAUKEE      CLOUDY    17   0  47 W9        30.20F WCI   6
6HR MIN TEMP:  15; 6HR MAX TEMP:  17;

WAUKESHA       CLOUDY    14   1  57 SW5       30.20F WCI   6
MILWAUKEE/TIMM CLOUDY    18   0  45 W8        30.21F WCI   7
RACINE         CLOUDY    17   5  59 W7        30.22F WCI   8
6HR MIN TEMP:  12; 6HR MAX TEMP:  17;

BURLINGTON     CLOUDY    15   5  63 SW5       30.21F WCI   8
KENOSHA        CLOUDY    17   7  64 W8        30.21F WCI   7
6HR MIN TEMP:  11; 6HR MAX TEMP:  17;

FOND DU LAC    CLOUDY    15   2  56 SW9       30.16F WCI   3
6HR MIN TEMP:  10; 6HR MAX TEMP:  15;

SHEBOYGAN      CLOUDY    16   1  51 W13       30.16F WCI   2
6HR MIN TEMP:   9; 6HR MAX TEMP:  16;

WEST BEND      CLOUDY    16   1  53 W9        30.17F WCI   4
JUNEAU         CLOUDY    14   4  63 SW9       30.20S WCI   2
$$

LSZ147-162-120700-
LAKE SUPERIOR

STATION/POSITION TIME  TEMP    WIND        PRES    WAVE
                       AIR SEA DIR/SP/G            HT/PER
                 (UTC) (F)     (DEG/KT/KT) (MB)    (FT/S)
DEVILS ISLAND    0500   15     290/ 22/ 27 1021.2F
PORT WING        0500   15     300/ 12/ 21 1021.0
SAXON HARBOR     0500   13                 1020.0F
$$

LMZ867-665-643>646-120700-
LAKE MICHIGAN

STATION/POSITION TIME  TEMP    WIND        PRES    WAVE
                       AIR SEA DIR/SP/G            HT/PER
                 (UTC) (F)     (DEG/KT/KT) (MB)    (FT/S)
CHAMBERS ISLAND  0500   16     240/ 11/ 20 1019.3F
ALGOMA LAKESHORE 0441          250/  8/ 17   N/A
KEWAUNEE LAKESHO 0400   15     270/  6/ 10 1020.5F
SHEBOYGAN LAKESH 0500   17     260/ 10/ 13 1023.5F
PORT WASHINGTON  0500   16     270/  8/ 14 1023.4
MILWAUKEE LAKESH 0410   17     270/ 12/ 14   N/A
KENOSHA   LAKESH 0500   17     250/  8/ 10 1023.7F
$$

TC  - TEMPERATURE IN CELSIUS
VSB - VISIBILITY IN STATUTE MILES
WCI - WIND CHILL INDEX
HX  - HEAT INDEX




USA.gov is the U.S. government's official web portal to all federal, state and local government web resources and services.